Austin, TX

4:15 PM CST on February 07, 2016 (GMT -0600)
Austin Bergstrom International

Weather History for KAUS - February, 2014

Change the Weather History Date:

Thursday, February 20, 2014

  Actual Average Record
Temperature  
Mean Temperature 68 °F 53 °F  
Max Temperature 82 °F 66 °F 94 °F (1986)
Min Temperature 54 °F 40 °F 29 °F (2009)
Degree Days  
Heating Degree Days 0 12  
Month to date heating degree days 288 280  
Since 1 July heating degree days 1731 1522  
Cooling Degree Days 3 0  
Month to date cooling degree days 9 0  
Year to date cooling degree days 10 5  
Growing Degree Days 18 (Base 50)    
Moisture  
Dew Point 52 °F    
Average Humidity 56    
Maximum Humidity 93    
Minimum Humidity 19    
Precipitation  
Precipitation T in 0.09 in 3.53 in (2003)
Month to date precipitation 0.23 1.68  
Year to date precipitation 0.80 3.88  
Snow  
Snow 0.00 in - - ()
Month to date snowfall T  
Since 1 July snowfall T  
Snow Depth 0.00 in    
Sea Level Pressure  
Sea Level Pressure 29.83 in    
Wind  
Wind Speed 13 mph (SW)    
Max Wind Speed 25 mph    
Max Gust Speed 32 mph    
Visibility 9 miles    
Events Rain    
T = Trace of Precipitation, MM = Missing Value Source: NWS Daily Summary

Daily Weather History Graph

Daily Weather History Graph

Search for Another Location

Airport or City:

Trip Planner

Search our weather history database for the weather conditions in past years. The results will help you decide how hot, cold, wet, or windy it might be!

Date:

Astronomy

Feb. 20, 2014 Rise Set
Actual Time 7:06 AM CST 6:23 PM CST
Civil Twilight 6:41 AM CST 6:47 PM CST
Nautical Twilight 6:13 AM CST 7:15 PM CST
Astronomical Twilight 5:45 AM CST 7:43 PM CST
Moon 11:51 PM CST (2/20) 10:15 AM CST (2/20)
Length of Visible Light 12h 05m
Length of Day
11h 17m
Waning Gibbous, 70% of the Moon is Illuminated
Feb 20
Waning Gibbous
Feb 22
Last Quarter
Mar 1
New
Mar 8
First Quarter
Mar 16
Full

Hourly Weather History & Observations

Time (CST) Temp. Heat Index Dew Point Humidity Pressure Visibility Wind Dir Wind Speed Gust Speed Precip Events Conditions
12:02 AM 66.2 °F - 60.8 °F 83% 29.78 in 10.0 mi South 12.7 mph - N/A   Scattered Clouds
12:53 AM 64.0 °F - 60.1 °F 87% 29.75 in 10.0 mi South 10.4 mph - N/A   Scattered Clouds
1:03 AM 64.4 °F - 60.8 °F 88% 29.76 in 10.0 mi South 9.2 mph - N/A   Mostly Cloudy
1:53 AM 64.9 °F - 61.0 °F 87% 29.73 in 10.0 mi South 10.4 mph - N/A   Overcast
2:53 AM 64.9 °F - 62.1 °F 90% 29.73 in 10.0 mi South 15.0 mph - N/A   Overcast
3:11 AM 64.4 °F - 60.8 °F 88% 29.74 in 10.0 mi South 17.3 mph - N/A   Overcast
3:53 AM 66.0 °F - 61.0 °F 84% 29.71 in 10.0 mi South 17.3 mph - N/A   Overcast
4:22 AM 66.2 °F - 62.6 °F 88% 29.73 in 9.0 mi South 15.0 mph - N/A   Overcast
4:40 AM 66.2 °F - 62.6 °F 88% 29.73 in 10.0 mi South 15.0 mph - N/A   Overcast
4:53 AM 64.9 °F - 62.1 °F 90% 29.71 in 10.0 mi South 11.5 mph - N/A   Overcast
5:22 AM 64.4 °F - 62.6 °F 94% 29.73 in 9.0 mi South 9.2 mph - N/A   Overcast
5:53 AM 64.0 °F - 62.1 °F 93% 29.71 in 8.0 mi South 10.4 mph - N/A   Overcast
6:53 AM 64.0 °F - 62.1 °F 93% 29.74 in 7.0 mi Calm Calm - N/A   Overcast
7:53 AM 66.0 °F - 63.0 °F 90% 29.78 in 7.0 mi West 4.6 mph - N/A   Overcast
8:14 AM 66.2 °F - 62.6 °F 88% 29.81 in 7.0 mi WSW 3.5 mph - N/A   Overcast
8:53 AM 68.0 °F - 64.0 °F 87% 29.79 in 6.0 mi SSW 6.9 mph - N/A   Mostly Cloudy
9:43 AM 73.4 °F - 64.4 °F 73% 29.82 in 8.0 mi South 10.4 mph - N/A   Mostly Cloudy
9:53 AM 73.0 °F - 64.9 °F 76% 29.81 in 8.0 mi SSW 9.2 mph - N/A   Mostly Cloudy
10:53 AM 75.0 °F - 64.9 °F 71% 29.82 in 10.0 mi SW 9.2 mph - N/A   Overcast
11:38 AM 75.2 °F - 64.4 °F 69% 29.85 in 10.0 mi SW 6.9 mph - 0.00 in Rain Light Rain
11:53 AM 77.0 °F - 64.0 °F 64% 29.83 in 10.0 mi West 8.1 mph - 0.00 in   Mostly Cloudy
12:53 PM 80.1 °F 80.7 °F 59.0 °F 48% 29.81 in 10.0 mi NNW 15.0 mph 20.7 mph N/A   Scattered Clouds
1:53 PM 80.1 °F - 52.0 °F 38% 29.79 in 10.0 mi NNW 15.0 mph - N/A   Mostly Cloudy
2:53 PM 79.0 °F - 42.1 °F 27% 29.80 in 10.0 mi NNW 18.4 mph 26.5 mph N/A   Mostly Cloudy
3:53 PM 81.0 °F - 35.1 °F 19% 29.81 in 10.0 mi North 16.1 mph 24.2 mph N/A   Mostly Cloudy
4:53 PM 77.0 °F - 32.0 °F 19% 29.85 in 10.0 mi NNW 21.9 mph 28.8 mph N/A   Mostly Cloudy
5:53 PM 71.1 °F - 32.0 °F 24% 29.90 in 10.0 mi North 20.7 mph 27.6 mph N/A   Mostly Cloudy
6:53 PM 66.0 °F - 30.9 °F 27% 29.96 in 10.0 mi North 15.0 mph - N/A   Scattered Clouds
7:53 PM 63.0 °F - 30.9 °F 30% 30.01 in 10.0 mi North 16.1 mph - N/A   Clear
8:53 PM 60.1 °F - 30.0 °F 32% 30.05 in 10.0 mi North 15.0 mph - N/A   Clear
9:53 PM 57.9 °F - 30.9 °F 36% 30.07 in 10.0 mi North 13.8 mph - N/A   Clear
10:53 PM 55.9 °F - 30.9 °F 39% 30.07 in 10.0 mi NNE 12.7 mph - N/A   Clear
11:53 PM 55.0 °F - 30.9 °F 40% 30.09 in 10.0 mi NNE 12.7 mph - N/A   Clear